EW9318 Weather Reports


time (UTC)temp
C
wind
direction
speed
KPH
gust
KPH
rain 1hr
cm
rain 24hr
cm
rain mn
cm
humidity
%
barometer
mb
20260906172016 22 78 9.7 20.9 0.00 0.00 0.00 64 1019.0
20260906171516 22 81 11.3 20.9 0.00 0.00 0.00 65 1019.0
20260906171036 22 90 12.9 20.9 0.00 0.00 0.00 67 1019.1
20260906170556 22 89 11.3 19.3 0.00 0.00 0.00 67 1019.1
20260906170016 22 63 11.3 24.1 0.00 0.00 0.00 67 1019.1
20260906165516 22 66 14.5 24.1 0.00 0.00 0.00 67 1019.0
20260906165016 22 58 9.7 19.3 0.00 0.00 0.00 68 1019.1
20260906164516 21 85 9.7 27.4 0.00 0.00 0.00 71 1019.1
20260906164016 21 70 11.3 27.4 0.00 0.00 0.00 69 1019.1
20260906163516 21 71 12.9 22.5 0.00 0.00 0.00 68 1019.0
20260906163017 21 83 14.5 22.5 0.00 0.00 0.00 69 1019.1
20260906162516 21 78 11.3 20.9 0.00 0.00 0.00 69 1019.2
20260906162016 21 72 11.3 20.9 0.00 0.00 0.00 70 1019.2
20260906161516 21 65 11.3 19.3 0.00 0.00 0.00 71 1019.2
20260906161016 21 78 11.3 22.5 0.00 0.00 0.00 71 1019.2
20260906160516 21 56 11.3 22.5 0.00 0.00 0.00 72 1019.1
20260906160036 21 63 11.3 20.9 0.00 0.00 0.00 71 1019.1
20260906155516 21 61 11.3 19.3 0.00 0.00 0.00 71 1019.2
20260906155016 21 61 8.0 20.9 0.00 0.00 0.00 73 1019.3
20260906154536 21 91 12.9 20.9 0.00 0.00 0.00 72 1019.3
20260906154017 21 88 9.7 19.3 0.00 0.00 0.00 74 1019.4
20260906153516 21 82 12.9 19.3 0.00 0.00 0.00 72 1019.3
20260906153016 20 97 11.3 19.3 0.00 0.00 0.00 73 1019.2
20260906152516 20 98 12.9 19.3 0.00 0.00 0.00 74 1019.3
20260906152016 20 75 11.3 19.3 0.00 0.00 0.00 74 1019.2
20260906151517 20 63 9.7 19.3 0.00 0.00 0.00 75 1019.1
20260906151016 20 72 8.0 16.1 0.00 0.00 0.00 76 1019.2
20260906150516 20 89 9.7 16.1 0.00 0.00 0.00 77 1019.2
20260906150016 20 90 8.0 20.9 0.00 0.00 0.00 79 1019.1
20260906145516 19 87 11.3 20.9 0.00 0.00 0.00 79 1019.0
20260906145016 19 81 12.9 19.3 0.00 0.00 0.00 79 1018.9
20260906144517 19 100 12.9 19.3 0.00 0.00 0.00 81 1018.9
20260906144016 19 94 11.3 20.9 0.00 0.00 0.00 81 1018.9
20260906143516 18 93 14.5 22.5 0.00 0.00 0.00 82 1018.9
20260906143056 18 90 12.9 22.5 0.00 0.00 0.00 82 1018.8
20260906142515 18 91 12.9 22.5 0.00 0.00 0.00 82 1018.8
20260906142016 18 81 12.9 19.3 0.00 0.00 0.00 82 1018.9
20260906141516 18 85 12.9 20.9 0.00 0.00 0.00 82 1018.8
20260906141016 18 88 14.5 20.9 0.00 0.00 0.00 82 1018.8
20260906140516 18 95 11.3 19.3 0.00 0.00 0.00 83 1018.8
20260906140015 18 85 8.0 17.7 0.00 0.00 0.00 85 1019.0
20260906135516 18 83 8.0 17.7 0.00 0.00 0.00 85 1018.9
20260906135017 17 85 8.0 17.7 0.00 0.00 0.00 85 1018.8
20260906134515 17 90 9.7 17.7 0.00 0.00 0.00 86 1018.8
20260906134015 17 77 9.7 17.7 0.00 0.00 0.00 86 1018.8
20260906133516 17 73 6.4 12.9 0.00 0.00 0.00 87 1018.9
20260906133036 16 74 4.8 12.9 0.00 0.00 0.00 88 1018.9
20260906132515 16 75 3.2 11.3 0.00 0.00 0.00 88 1018.8
20260906132036 16 83 4.8 11.3 0.00 0.00 0.00 89 1018.7
20260906131516 16 83 3.2 8.0 0.00 0.00 0.00 90 1018.7
20260906131036 16 64 3.2 8.0 0.00 0.00 0.00 91 1018.6
20260906130515 15 58 1.6 8.0 0.00 0.00 0.00 91 1018.7
20260906130015 15 50 1.6 8.0 0.00 0.00 0.00 92 1018.6
20260906125516 15 54 1.6 4.8 0.00 0.00 0.00 93 1018.6
20260906125015 15 53 0.0 4.8 0.00 0.00 0.00 94 1018.6
20260906124517 15 45 1.6 4.8 0.00 0.00 0.00 94 1018.5
20260906124015 14 47 0.0 3.2 0.00 0.00 0.00 95 1018.4
20260906123537 13 0.0 0.0 0.00 0.00 0.00 95 1018.4
20260906123016 13 0.0 0.0 0.00 0.00 0.00 95 1018.3
20260906122515 13 0.0 0.0 0.00 0.00 0.00 94 1018.3
20260906122016 13 0.0 0.0 0.00 0.00 0.00 95 1018.3
20260906121515 13 0.0 0.0 0.00 0.00 0.00 94 1018.3
20260906121015 12 0.0 0.0 0.00 0.00 0.00 94 1018.1
20260906120515 12 0.0 0.0 0.00 0.00 0.00 94 1017.9
20260906120017 12 0.0 0.0 0.00 0.00 0.00 94 1017.9
20260906115516 12 0.0 1.6 0.00 0.00 0.00 94 1017.9
20260906115015 12 40 0.0 3.2 0.00 0.00 0.00 94 1017.8
20260906114537 12 27 1.6 3.2 0.00 0.00 0.00 94 1017.8
20260906114015 12 14 1.6 3.2 0.00 0.00 0.00 94 1017.7
20260906113516 12 17 1.6 3.2 0.00 0.00 0.00 94 1017.6
20260906113015 12 25 0.0 3.2 0.00 0.00 0.00 94 1017.5
20260906112515 12 0.0 0.0 0.00 0.00 0.00 94 1017.5
20260906112015 12 0.0 0.0 0.00 0.00 0.00 94 1017.6
20260906111515 12 0.0 0.0 0.00 0.00 0.00 93 1017.6
20260906111015 12 0.0 0.0 0.00 0.00 0.00 93 1017.5
20260906110516 12 0.0 1.6 0.00 0.00 0.00 93 1017.4
20260906110015 12 47 0.0 1.6 0.00 0.00 0.00 93 1017.3
20260906105515 12 45 0.0 3.2 0.00 0.00 0.00 93 1017.3
20260906105017 12 16 1.6 3.2 0.00 0.00 0.00 93 1017.3
20260906104515 12 19 0.0 3.2 0.00 0.00 0.00 93 1017.4
20260906104015 12 18 0.0 6.4 0.00 0.00 0.00 93 1017.3
20260906103515 12 10 3.2 6.4 0.00 0.00 0.00 93 1017.3
20260906103015 12 14 3.2 4.8 0.00 0.00 0.00 93 1017.2
20260906102515 12 29 1.6 4.8 0.00 0.00 0.00 93 1017.2
20260906102015 12 31 1.6 4.8 0.00 0.00 0.00 93 1017.1
20260906101515 12 31 1.6 4.8 0.00 0.00 0.00 92 1017.1
20260906101015 13 37 0.0 3.2 0.00 0.00 0.00 92 1017.0
20260906100515 13 38 0.0 4.8 0.00 0.00 0.00 92 1017.1
20260906100015 13 39 1.6 4.8 0.00 0.00 0.00 92 1017.0
20260906095515 13 53 1.6 4.8 0.00 0.00 0.00 92 1017.0
20260906095057 13 52 3.2 6.4 0.00 0.00 0.00 92 1017.0
20260906094515 13 56 3.2 6.4 0.00 0.00 0.00 92 1017.0
20260906094015 13 53 3.2 6.4 0.00 0.00 0.00 92 1017.0
20260906093515 13 40 1.6 4.8 0.00 0.00 0.00 92 1017.0
20260906093015 13 0.0 0.0 0.00 0.00 0.00 91 1017.1
20260906092515 13 0.0 0.0 0.00 0.00 0.00 91 1017.0
20260906092035 13 0.0 0.0 0.00 0.00 0.00 91 1017.0
20260906091536 13 0.0 0.0 0.00 0.00 0.00 91 1017.0
20260906091035 13 0.0 0.0 0.00 0.00 0.00 91 1016.9
20260906090535 13 0.0 0.0 0.00 0.00 0.00 91 1016.9
20260906090056 13 0.0 1.6 0.00 0.00 0.00 91 1016.8
20260906085515 13 60 0.0 3.2 0.00 0.00 0.00 91 1016.6
20260906085015 13 44 0.0 3.2 0.00 0.00 0.00 91 1016.6
20260906084535 13 42 0.0 4.8 0.00 0.00 0.00 91 1016.6
20260906084015 13 44 0.0 4.8 0.00 0.00 0.00 91 1016.6
20260906083515 13 58 0.0 3.2 0.00 0.00 0.00 91 1016.5
20260906083015 13 54 0.0 4.8 0.00 0.00 0.00 92 1016.5
20260906082515 13 55 1.6 8.0 0.00 0.00 0.00 92 1016.5
20260906082015 13 67 3.2 8.0 0.00 0.00 0.00 92 1016.5
20260906081516 13 70 3.2 6.4 0.00 0.00 0.00 92 1016.3
20260906081015 13 62 1.6 4.8 0.00 0.00 0.00 92 1016.4
20260906080516 13 64 0.0 3.2 0.00 0.00 0.00 91 1016.4
20260906080015 14 64 0.0 1.6 0.00 0.00 0.00 91 1016.4
20260906075515 14 68 0.0 3.2 0.00 0.00 0.00 91 1016.4
20260906075015 14 81 0.0 3.2 0.00 0.00 0.00 91 1016.3
20260906074515 14 87 0.0 3.2 0.00 0.00 0.00 91 1016.3
20260906074017 14 64 0.0 4.8 0.00 0.00 0.00 91 1016.3
20260906073517 14 62 1.6 4.8 0.00 0.00 0.00 91 1016.2
20260906073017 14 42 1.6 3.2 0.00 0.00 0.00 91 1016.2
20260906072557 14 32 1.6 3.2 0.00 0.00 0.00 90 1016.2
20260906072017 15 40 1.6 4.8 0.00 0.00 0.00 90 1016.2
20260906071517 15 39 3.2 4.8 0.00 0.00 0.00 90 1016.3
20260906071015 15 46 0.0 3.2 0.00 0.00 0.00 89 1016.2
20260906070518 15 51 1.6 3.2 0.00 0.00 0.00 89 1016.3
20260906070017 15 48 0.0 3.2 0.00 0.00 0.00 88 1016.3
20260906065537 15 0.0 1.6 0.00 0.00 0.00 88 1016.4
20260906065017 15 38 0.0 3.2 0.00 0.00 0.00 88 1016.4
20260906064517 15 37 0.0 3.2 0.00 0.00 0.00 87 1016.5
20260906064017 15 0.0 0.0 0.00 0.00 0.00 87 1016.4
20260906063517 15 0.0 0.0 0.00 0.00 0.00 87 1016.4
20260906063017 16 0.0 3.2 0.00 0.00 0.00 86 1016.4
20260906062517 16 39 0.0 4.8 0.00 0.00 0.00 87 1016.4
20260906062017 16 60 0.0 6.4 0.00 0.00 0.00 87 1016.4
20260906061517 16 89 3.2 6.4 0.00 0.00 0.00 87 1016.3
20260906061017 16 110 3.2 6.4 0.00 0.00 0.00 86 1016.2
20260906060518 16 106 4.8 6.4 0.00 0.00 0.00 85 1016.2
20260906060017 16 92 3.2 6.4 0.00 0.00 0.00 84 1016.2
20260906055517 16 82 1.6 4.8 0.00 0.00 0.00 84 1016.4
20260906055017 17 77 1.6 4.8 0.00 0.00 0.00 84 1016.3
20260906054517 17 66 3.2 4.8 0.00 0.00 0.00 83 1016.3
20260906054038 17 49 1.6 4.8 0.00 0.00 0.00 83 1016.2
20260906053518 17 44 1.6 4.8 0.00 0.00 0.00 82 1016.2
20260906053017 17 50 1.6 6.4 0.00 0.00 0.00 82 1016.2
20260906052517 17 74 3.2 6.4 0.00 0.00 0.00 81 1016.1
20260906052017 17 86 3.2 6.4 0.00 0.00 0.00 81 1016.1
20260906051517 17 98 4.8 9.7 0.00 0.00 0.00 81 1016.1
20260906051016 17 83 4.8 9.7 0.00 0.00 0.00 81 1016.1
20260906050517 18 21 3.2 12.9 0.00 0.00 0.00 81 1016.0
20260906050017 18 44 6.4 12.9 0.00 0.00 0.00 81 1016.0
20260906045518 18 20 4.8 11.3 0.00 0.00 0.00 81 1015.8
20260906045016 18 64 4.8 11.3 0.00 0.00 0.00 81 1015.8
20260906044517 18 85 4.8 11.3 0.00 0.00 0.00 82 1015.7
20260906044017 18 86 4.8 9.7 0.00 0.00 0.00 82 1015.7
20260906043518 18 84 4.8 9.7 0.00 0.00 0.00 81 1015.7
20260906043017 18 76 3.2 8.0 0.00 0.00 0.00 81 1015.6
20260906042538 18 83 4.8 11.3 0.00 0.00 0.00 81 1015.6
20260906042017 18 79 4.8 11.3 0.00 0.00 0.00 81 1015.5
20260906041516 18 84 3.2 11.3 0.00 0.00 0.00 81 1015.5
20260906041016 18 84 6.4 14.5 0.00 0.00 0.00 81 1015.5
20260906040518 19 82 6.4 14.5 0.00 0.00 0.00 80 1015.5
20260906040016 19 81 6.4 14.5 0.00 0.00 0.00 80 1015.5
20260906035515 19 81 6.4 14.5 0.00 0.00 0.00 80 1015.5
20260906035015 19 85 8.0 12.9 0.00 0.00 0.00 81 1015.4
20260906034515 20 88 6.4 12.9 0.00 0.00 0.00 81 1015.4
20260906034015 20 80 4.8 12.9 0.00 0.00 0.00 82 1015.4
20260906033515 20 77 4.8 11.3 0.00 0.00 0.00 82 1015.3
20260906033015 20 79 4.8 11.3 0.00 0.00 0.00 81 1015.3
20260906032515 20 82 4.8 12.9 0.00 0.00 0.00 82 1015.4
20260906032055 20 81 4.8 12.9 0.00 0.00 0.00 82 1015.5
20260906031517 20 75 3.2 8.0 0.00 0.00 0.00 82 1015.6
20260906031017 20 70 4.8 9.7 0.00 0.00 0.00 83 1015.5
20260906030517 20 67 4.8 11.3 0.00 0.00 0.00 83 1015.4
20260906030017 20 81 4.8 11.3 0.00 0.00 0.00 83 1015.4
20260906025517 20 82 6.4 12.9 0.00 0.00 0.00 83 1015.4
20260906025018 20 84 4.8 12.9 0.00 0.00 0.00 83 1015.3
20260906024518 20 82 4.8 12.9 0.00 0.00 0.00 84 1015.3
20260906024017 20 79 4.8 12.9 0.00 0.00 0.00 84 1015.2
20260906023518 20 76 4.8 12.9 0.00 0.00 0.00 84 1015.0
20260906023037 20 75 6.4 12.9 0.00 0.00 0.00 85 1014.9
20260906022517 20 78 6.4 12.9 0.00 0.00 0.00 87 1014.9
20260906022017 20 76 4.8 11.3 0.00 0.00 0.00 88 1015.0
20260906021517 20 72 1.6 8.0 0.00 0.00 0.00 89 1014.9
20260906021018 20 68 1.6 6.4 0.00 0.00 0.00 89 1014.9
20260906020517 20 80 1.6 6.4 0.00 0.00 0.00 89 1014.8
20260906020017 20 84 1.6 4.8 0.00 0.00 0.00 90 1014.8
20260906015517 20 56 0.0 4.8 0.00 0.00 0.00 90 1014.8
20260906015017 20 52 1.6 4.8 0.00 0.00 0.00 90 1014.8
20260906014517 20 47 0.0 3.2 0.00 0.00 0.00 90 1014.9
20260906014017 20 0.0 0.0 0.00 0.00 0.00 90 1014.8
20260906013517 20 0.0 0.0 0.00 0.00 0.00 89 1014.9
20260906013017 20 0.0 0.0 0.00 0.00 0.00 89 1014.8
20260906012518 20 0.0 0.0 0.00 0.00 0.00 89 1014.6
20260906012017 21 0.0 1.6 0.00 0.00 0.00 89 1014.6
20260906011517 21 37 0.0 1.6 0.00 0.00 0.00 89 1014.5
20260906011018 21 0.0 0.0 0.00 0.00 0.00 88 1014.4
20260906010517 21 0.0 0.0 0.00 0.00 0.00 88 1014.3
20260906010018 21 0.0 0.0 0.00 0.00 0.00 87 1014.3
20260906005517 21 0.0 0.0 0.00 0.00 0.00 87 1014.2
20260906005016 21 0.0 0.0 0.00 0.00 0.00 86 1014.1
20260906004517 21 0.0 0.0 0.00 0.00 0.00 86 1014.1
20260906004037 21 0.0 1.6 0.00 0.00 0.00 86 1014.0
20260906003517 21 37 0.0 1.6 0.00 0.00 0.00 85 1014.0
20260906003037 21 37 0.0 1.6 0.00 0.00 0.00 85 1014.0
20260906002516 22 37 0.0 3.2 0.00 0.00 0.00 85 1014.0
20260906002016 22 39 0.0 4.8 0.00 0.00 0.00 84 1014.0
20260906001517 22 39 1.6 4.8 0.00 0.00 0.00 84 1014.0
20260906001037 22 32 0.0 3.2 0.00 0.00 0.00 84 1014.0
20260906000516 22 31 0.0 3.2 0.00 0.00 0.00 83 1014.0
20260906000018 22 24 0.0 3.2 0.00 0.00 0.00 83 1014.0
20260905235517 22 35 0.0 3.2 0.00 0.00 0.00 83 1013.9
20260905235036 22 42 0.0 4.8 0.00 0.00 0.00 83 1013.9
20260905234517 22 42 1.6 6.4 0.00 0.00 0.00 83 1013.9
20260905234017 22 49 3.2 6.4 0.00 0.00 0.00 83 1013.9
20260905233517 22 44 1.6 4.8 0.00 0.00 0.00 84 1013.9
20260905233016 22 37 1.6 4.8 0.00 0.00 0.00 84 1013.9
20260905232516 22 47 0.0 6.4 0.00 0.00 0.00 84 1013.9
20260905232017 22 61 3.2 8.0 0.00 0.00 0.00 84 1013.9
20260905231537 22 69 3.2 8.0 0.00 0.00 0.00 84 1014.0
20260905231016 22 51 1.6 6.4 0.00 0.00 0.00 84 1013.9
20260905230516 22 60 0.0 6.4 0.00 0.00 0.00 85 1013.9
20260905230018 22 55 1.6 8.0 0.00 0.00 0.00 85 1013.9
20260905225517 22 58 4.8 8.0 0.00 0.00 0.00 84 1013.9
20260905225017 22 44 1.6 6.4 0.00 0.00 0.00 84 1013.8
20260905224516 22 48 1.6 8.0 0.00 0.00 0.00 84 1013.7
20260905224017 22 54 3.2 14.5 0.00 0.00 0.00 84 1013.7
20260905223536 22 66 8.0 16.1 0.00 0.00 0.00 83 1013.7
20260905223016 22 61 9.7 16.1 0.00 0.00 0.00 84 1013.6
20260905222517 22 58 4.8 12.9 0.00 0.00 0.00 85 1013.6
20260905222018 22 74 4.8 11.3 0.00 0.00 0.00 85 1013.5
20260905221518 22 74 4.8 12.9 0.00 0.00 0.00 85 1013.4
20260905221016 22 78 4.8 14.5 0.00 0.00 0.00 85 1013.4
20260905220517 22 87 9.7 14.5 0.00 0.00 0.00 85 1013.4
20260905220016 22 84 11.3 17.7 0.00 0.00 0.00 85 1013.5
20260905215536 22 79 9.7 17.7 0.00 0.00 0.00 85 1013.4
20260905215016 22 58 6.4 20.9 0.00 0.00 0.00 86 1013.4
20260905214517 22 68 11.3 20.9 0.00 0.00 0.00 86 1013.3
20260905214017 22 74 9.7 14.5 0.00 0.00 0.00 86 1013.2
20260905213518 22 79 8.0 14.5 0.00 0.00 0.00 87 1013.2
20260905213017 22 75 8.0 16.1 0.00 0.00 0.00 87 1013.2
20260905212518 22 86 6.4 16.1 0.00 0.00 0.00 87 1013.2
20260905212017 22 91 9.7 14.5 0.00 0.00 0.00 86 1013.2
20260905211516 22 63 8.0 14.5 0.00 0.00 0.00 87 1013.2
20260905211016 22 69 8.0 17.7 0.00 0.00 0.00 86 1013.2
20260905210516 22 67 9.7 17.7 0.00 0.00 0.00 86 1013.2
20260905210017 22 78 8.0 16.1 0.00 0.00 0.00 87 1013.2
20260905205539 22 69 8.0 16.1 0.00 0.00 0.00 87 1013.2
20260905205016 22 85 11.3 17.7 0.00 0.00 0.00 87 1013.3
20260905204518 22 72 11.3 17.7 0.00 0.00 0.00 87 1013.4
20260905204016 21 83 9.7 17.7 0.00 0.03 0.00 87 1013.4
20260905203516 21 78 11.3 19.3 0.00 0.03 0.00 87 1013.4
20260905203016 21 72 11.3 19.3 0.00 0.03 0.00 87 1013.5
20260905202516 21 70 11.3 20.9 0.00 0.03 0.00 88 1013.5
20260905202017 21 67 12.9 20.9 0.00 0.03 0.00 87 1013.6
20260905201516 21 70 12.9 17.7 0.00 0.03 0.00 87 1013.6
20260905201017 21 64 9.7 17.7 0.00 0.05 0.00 88 1013.6
20260905200537 21 68 8.0 17.7 0.00 0.05 0.00 88 1013.6
20260905200017 21 63 9.7 17.7 0.00 0.05 0.00 89 1013.6
20260905195536 21 65 8.0 16.1 0.00 0.05 0.00 89 1013.6
20260905195056 21 71 8.0 17.7 0.00 0.05 0.00 89 1013.6
20260905194516 21 64 8.0 19.3 0.00 0.05 0.00 89 1013.6
20260905194016 21 62 9.7 19.3 0.00 0.08 0.00 88 1013.6
20260905193516 21 50 8.0 19.3 0.00 0.08 0.00 88 1013.6
20260905193016 21 56 8.0 16.1 0.00 0.08 0.00 89 1013.5
20260905192536 21 56 6.4 16.1 0.00 0.08 0.00 89 1013.7
20260905192017 21 65 11.3 17.7 0.00 0.10 0.00 89 1013.7
20260905191517 21 74 8.0 17.7 0.00 0.10 0.00 89 1013.8
20260905191016 21 48 6.4 14.5 0.00 0.10 0.00 89 1013.7
20260905190516 21 52 4.8 17.7 0.00 0.13 0.00 90 1013.6
20260905190016 21 54 9.7 17.7 0.00 0.13 0.00 89 1013.7
20260905185517 21 50 8.0 16.1 0.00 0.13 0.00 89 1013.8
20260905185016 21 63 6.4 16.1 0.00 0.13 0.00 89 1013.8
20260905184517 21 46 6.4 17.7 0.00 0.15 0.00 90 1013.8
20260905184016 21 68 8.0 17.7 0.00 0.15 0.00 90 1013.7
20260905183537 21 68 6.4 14.5 0.00 0.18 0.00 90 1013.7
20260905183016 21 67 8.0 14.5 0.00 0.18 0.00 90 1013.7
20260905182516 21 50 6.4 16.1 0.00 0.18 0.00 90 1013.6
20260905182016 21 57 8.0 16.1 0.00 0.20 0.00 90 1013.7
20260905181516 21 66 8.0 16.1 0.00 0.20 0.00 90 1013.7
20260905181016 21 55 4.8 14.5 0.00 0.20 0.00 91 1013.6
20260905180536 21 43 8.0 14.5 0.00 0.23 0.00 91 1013.7
20260905180017 21 45 4.8 11.3 0.00 0.23 0.00 92 1013.8
20260905175536 21 39 4.8 12.9 0.00 0.23 0.00 92 1013.8
20260905175036 21 35 6.4 12.9 0.00 0.25 0.00 92 1013.8
20260905174556 21 67 6.4 11.3 0.00 0.25 0.00 93 1013.8
20260905174016 21 55 6.4 14.5 0.00 0.25 0.00 93 1013.8
20260905173516 21 74 8.0 14.5 0.00 0.25 0.00 93 1013.7
20260905173036 21 62 6.4 11.3 0.00 0.28 0.00 94 1013.7
20260905172516 21 53 3.2 14.5 0.00 0.28 0.00 94 1013.7